Back to catalog

STARLINK-4007

AliveCommunicationsVLEO
NORAD 52707·PAYLOAD·🇺🇸 United States

Launched May 18, 2022 from Cape Canaveral Space Force Station

Loading…

Next Passes (next 24 hours)

TLE

FreshSource: CelesTrak SupGP

Epoch: Sep 14, 2026, 14:37 UTC

1 52707C 22053BD  26257.60951389  .00008263  00000+0  45752-3 0  2577
2 52707  53.2153   3.5558 0001484  52.4285 262.5844 15.13325414    12

Track STARLINK-4007 in real time with AllMySat

Download on the App Store